Printer-friendly version

IAU Minor Planet Center

Minor Planet Center

MPEC 2006-H24 : 2006 HA6

The following Minor Planet Electronic Circular may be linked-to from your own Web pages, but must not otherwise be redistributed electronically.


Read MPEC 2006-H23 Read MPEC 2006-H25


M.P.E.C. 2006-H24                                Issued 2006 Apr. 21, 17:31 UT

     The Minor Planet Electronic Circulars contain information on unusual
         minor planets and routine data on comets.  They are published
   on behalf of Commission 20 of the International Astronomical Union by the
          Minor Planet Center, Smithsonian Astrophysical Observatory,
                          Cambridge, MA 02138, U.S.A.

                  Supported in part by the Brinson Foundation
                  Supported in part by the TABASGO Foundation
             Prepared using the Tamkin Foundation Computer Network

                              MPC@CFA.HARVARD.EDU
          URL http://cfa-www.harvard.edu/iau/mpc.html  ISSN 1523-6714

                                   2006 HA6

Observations:
     K06H06A* C2006 04 20.58330 13 35 47.36 -37 09 30.3          19.4 V EH024E12
     K06H06A  C2006 04 20.59199 13 35 46.17 -37 09 55.5          19.0 V EH024E12
     K06H06A  C2006 04 20.60062 13 35 44.88 -37 10 20.4          19.0 V EH024E12
     K06H06A  C2006 04 20.60918 13 35 43.76 -37 10 46.1          19.6 V EH024E12
     K06H06A  C2006 04 20.64922 13 35 38.25 -37 12 44.9          19.2 V EH024E12
     K06H06A  C2006 04 20.65010 13 35 38.18 -37 12 47.0          19.6 V EH024E12
     K06H06A  C2006 04 20.65097 13 35 38.00 -37 12 49.9          19.3 V EH024E12
     K06H06A  C2006 04 20.65185 13 35 37.82 -37 12 52.5          19.6 V EH024E12
     K06H06A  C2006 04 20.65322 13 35 37.71 -37 12 56.9          19.3 V EH024E12
     K06H06A  C2006 04 20.66274 13 35 36.38 -37 13 24.6          19.0 V EH024E12
     K06H06A  C2006 04 20.67229 13 35 35.19 -37 13 51.3          19.8 V EH024E12
     K06H06A  C2006 04 20.68181 13 35 33.86 -37 14 20.4          19.8 V EH024E12
     K06H06A  C2006 04 20.72464 13 35 28.03 -37 16 24.2          18.9 V EH024E12
     K06H06A  C2006 04 20.72705 13 35 27.74 -37 16 29.8          19.9 V EH024E12
     K06H06A  C2006 04 20.72944 13 35 27.31 -37 16 38.1          18.8 V EH024E12
     K06H06A  C2006 04 20.73184 13 35 27.13 -37 16 43.7          19.5 V EH024E12
     K06H06A  C2006 04 21.10941 13 34 41.31 -37 35 20.4          18.5 R EH024I77
     K06H06A  C2006 04 21.11355 13 34 40.72 -37 35 32.6          18.6 R EH024I77
     K06H06A  C2006 04 21.11665 13 34 40.31 -37 35 41.5          18.5 R EH024I77
     K06H06A  C2006 04 21.26414 13 34 22.36 -37 43 03.1          19.0 R EH024651
     K06H06A  C2006 04 21.26525 13 34 22.24 -37 43 06.9          18.9 R EH024651
     K06H06A  C2006 04 21.26859 13 34 21.77 -37 43 16.5          18.9 R EH024651
     K06H06A  C2006 04 21.26970 13 34 21.61 -37 43 19.7          18.9 R EH024651
     K06H06A  C2006 04 21.40410 13 34 06.27 -37 49 14.2          19.1 V EH024E12
     K06H06A  C2006 04 21.40498 13 34 06.16 -37 49 16.9          19.0 V EH024E12
     K06H06A  C2006 04 21.40584 13 34 06.02 -37 49 19.6          19.1 V EH024E12
     K06H06A  C2006 04 21.40673 13 34 05.84 -37 49 21.7          19.5 V EH024E12

Observer details:
651 Grasslands Observatory, Tucson.  Observer J. E. McGaha.  0.62-m f/5.1
    Newtonian reflector + CCD.
E12 Siding Spring Survey.  Observer R. H. McNaught.  Measurers E. C. Beshore,
    E. J. Christensen, G. J. Garradd, A. R. Gibbs, A. D. Grauer, R. E. Hill,
    R. A. Kowalski, S. M. Larson, R. H. McNaught.  0.5-m Uppsala Schmidt + CCD.
I77 CEAMIG-REA Observatory, Belo Horizonte.  Observers C. Jacques, E. Pimentel.
    Measurer C. Jacques.  0.30-m f/3.0 Schmidt-Cassegrain + CCD.

Orbital elements:
2006 HA6                                                 Earth MOID = 0.2201 AU
Epoch 2006 Mar. 6.0 TT = JDT 2453800.5                  MPC
M 359.32161              (2000.0)            P               Q
n   0.17871342     Peri.  158.17186     -0.98804408     -0.10696468
a   3.1215091      Node    16.86784     -0.00210811     -0.71072442
e   0.6163884      Incl.   22.49737     +0.15415722     -0.69529085
P   5.52           H   20.2           G   0.15           U   9
Residuals in seconds of arc
060420 E12  0.0   0.3-    060420 E12  0.3-  0.5-    060421 I77  0.1+  0.1+
060420 E12  0.2+  0.3+    060420 E12  1.1+  0.6+    060421 651  0.2+  0.2+
060420 E12  0.9-  1.0+    060420 E12  0.7+  0.8-    060421 651  0.6+  0.4-
060420 E12  0.1-  0.6+    060420 E12  0.2-  0.5-    060421 651  0.4+  0.4-
060420 E12  0.0   0.4-    060420 E12  0.2+  0.8+    060421 651  0.3+  0.4-
060420 E12  0.6+  0.1+    060420 E12  1.1-  0.6-    060421 E12  0.0   0.2+
060420 E12  0.1-  0.2-    060420 E12  0.5+  0.7+    060421 E12  0.0   0.1+
060420 E12  0.9-  0.3-    060421 I77  0.1+  0.3+    060421 E12  0.3-  0.1-
060420 E12  0.1+  0.7-    060421 I77  0.1-  0.0     060421 E12  1.0-  0.4+

Ephemeris:
2006 HA6                 a,e,i = 3.12, 0.62, 22                  q = 1.1974
Date    TT    R. A. (2000) Decl.     Delta      r     Elong.  Phase     V
2006 04 15    13 48.05   -31 47.6    0.291    1.277   157.5    17.5    19.0
2006 04 25    13 26.96   -40 23.4    0.349    1.323   151.1    21.5    19.6
2006 05 05    13 11.77   -45 07.4    0.424    1.377   144.7    25.0    20.2
2006 05 15    13 04.68   -47 28.1    0.510    1.437   139.3    27.3    20.7
2006 05 25    13 05.25   -48 28.5    0.606    1.502   134.7    28.7    21.3
2006 06 04    13 12.16   -48 46.2    0.711    1.571   130.3    29.5    21.7

Timothy B. Spahr             (C) Copyright 2006 MPC           M.P.E.C. 2006-H24

Read MPEC 2006-H23 Read MPEC 2006-H25


Our Web policy. Index to the CBAT/MPC/ICQ pages.


Valid HTML 4.01!